Regional Weather Roundup
Issued by NWS

Home | Current Version | Previous Version | Graphics & Text | Print | Product List | Glossary On
Versions: 1 2 3 4 5 6 7 8 9 10 11 12 13 14 15 16 17 18 19 20 21 22 23 24 25 26 27 28 29 30 31 32 33 34 35 36 37 38 39 40 41 42 43 44 45 46 47 48 49 50
000
ASUS43 KMPX 190910
RWRMN
WEATHER ROUNDUP FOR MINNESOTA
NATIONAL WEATHER SERVICE TWIN CITIES/CHANHASSEN MN
300 AM CST SUN FEB 19 2017


NOTE: "FAIR" INDICATES FEW OR NO CLOUDS BELOW 12,000 FEET WITH NO
SIGNIFICANT WEATHER AND/OR OBSTRUCTIONS TO VISIBILITY. N/A MEANS
CURRENT SKY AND/OR WEATHER CONDITIONS ARE NOT AVAILABLE.

MNZ060>063-068>070-191000-
   Twin Cities Metro

CITY           SKY/WX    TMP DP  RH WIND       PRES   REMARKS
TWIN CITIES    PTCLDY    33  29  85 CALM      29.90R
ST PAUL        CLEAR     33  33 100 CALM      29.91R
CRYSTAL        PTCLDY    29  25  85 CALM      29.89R
BLAINE         CLEAR     32  32 100 CALM      29.90R
LAKEVILLE      PTCLDY    27  27 100 CALM      29.90R
EDEN PRAIRIE   PTCLDY    33  31  92 CALM      29.89R
SOUTH ST PAUL  CLEAR     32  31  96 CALM      29.90S
LAKE ELMO      FAIR      32  30  93 NE3       29.92R
$$
MNZ001>005-007-008-013>017-022>024-027-028-191000-
   Northwest Minnesota

CITY           SKY/WX    TMP DP  RH WIND       PRES   REMARKS
BEMIDJI        CLOUDY    30  29  98 E3        29.87R
HALLOCK        CLOUDY    34  32  93 E5        29.85S WCI  30
ROSEAU         CLOUDY    30  27  86 NE6       29.87R WCI  24
WARROAD        CLOUDY    28  27  93 NE3       29.88R VSB 1
THIEF RVR FALL CLOUDY    35  31  85 E7        29.86R WCI  29
CROOKSTON      CLOUDY    36  34  93 E10       29.83F
FOSSTON        CLOUDY    30  28  93 E6        29.85S WCI  24
DETROIT LAKES  CLOUDY    36  34  93 SE5       29.83S
MOORHEAD       CLOUDY    36  34  93 E6        29.81S
PARK RAPIDS    CLOUDY    32  28  85 E5        29.85R WCI  27
MAHNOMEN       FAIR      32  31  98 E6        29.83S WCI  26
$$
MNZ006-009>011-018-025>026-191000-
   North Central Minnesota

CITY           SKY/WX    TMP DP  RH WIND       PRES   REMARKS
BAUDETTE       CLOUDY    30  28  92 N3        29.86R
FLAG ISLAND    CLOUDY    30  27  86 CALM      29.86F
INTL FALLS     CLOUDY    30  28  92 CALM      29.87R
WASKISH        CLOUDY    30  30 100 CALM      29.87R
BIG FORK       CLOUDY    30  28  93 CALM      29.87R
LONGVILLE      CLOUDY    28  27  93 CALM      29.88R
GRAND RAPIDS   CLOUDY    30  29  96 SE3       29.90R
CRANE LAKE     CLOUDY    23  23 100 CALM      29.90R
ORR            CLOUDY    30  28  93 CALM      29.85R
COOK           CLOUDY    28  28 100 CALM      29.88R
WALKER         CLOUDY    32  30  92 CALM      29.87R
$$
MNZ012-019>021-037-191000-
   Northeast Minnesota

CITY           SKY/WX    TMP DP  RH WIND       PRES   REMARKS
DULUTH         CLOUDY    36  31  82 CALM      29.88R
ELY            CLEAR     27  27 100 CALM      29.87S
HIBBING        CLOUDY    31  31 100 CALM      29.87R
EVELETH        CLOUDY    32  30  92 CALM      29.88R
DULUTH HARBOR  CLOUDY    36  32  87 CALM      29.91R
TWO HARBORS    MOCLDY    41  32  70 CALM      29.86R
SILVER BAY     CLOUDY    37  30  75 CALM      29.86R
GRAND MARAIS     N/A     34  29  82 W3        29.88R
G MARAIS ARPRT PTCLDY    34  25  69 NW5       29.84R WCI  30
$$
MNZ029>031-032-039>041-046>048-054>057-064-191000-
   West Central Minnesota

CITY           SKY/WX    TMP DP  RH WIND       PRES   REMARKS
FERGUS FALLS   CLOUDY    39  36  87 SE8       29.85R
WHEATON        CLEAR     34  32  93 SE9       29.82S WCI  26
MORRIS         CLEAR     37  36  93 SE9       29.82S
ALEXANDRIA     CLOUDY    39  35  86 SE8       29.85S
ELBOW LAKE     FAIR      37  35  93 E12       29.82S
WADENA         CLOUDY    30  30 100 E3        29.84S FOG
GLENWOOD       PTCLDY    36  34  93 SE8       29.86R
APPLETON       PTCLDY    34  32  93 SE6       29.83S WCI  29
BENSON         PTCLDY    41  36  81 S6        29.86R
ORTONVILLE     CLEAR     36  32  87 CALM      29.81F
WILLMAR        FAIR      36  36 100 CALM      29.87R
$$
MNZ033>034-036-042>043-049>051-058-059-191000-
   Central Minnesota

CITY           SKY/WX    TMP DP  RH WIND       PRES   REMARKS
ST CLOUD       CLOUDY    30  30 100 CALM      29.88S
SAUK CENTRE    FAIR      31  31 100 CALM      29.87R FOG
PAYNESVILLE    PTCLDY    31  31 100 CALM      29.87S
AITKIN         CLEAR     30  27  86 CALM      29.88R
PINE RIVER     CLOUDY    28  28 100 CALM      29.91R
BRAINERD       CLEAR     28  27  96 CALM      29.88R FOG
STAPLES        CLOUDY    28  28 100 E5        29.86S FOG     WCI  23
LONG PRAIRIE   FAIR      34  32  93 NE5       29.87S FOG     WCI  30
LITTLE FALLS   CLOUDY    28  28 100 CALM      29.89S FOG
LITCHFIELD       N/A     34  34 100 CALM      29.87F FOG
BUFFALO        CLOUDY    31  29  94 CALM      29.90R
MAPLE LAKE     FOG       32  32 100 CALM      29.90R VSB 1/2
HUTCHINSON     CLOUDY    33  33  99 E5        29.87F WCI  29
$$
MNZ037-044-045-052-053-191000-
   East Central Minnesota

CITY           SKY/WX    TMP DP  RH WIND       PRES   REMARKS
PRINCETON      CLOUDY    30  28  93 CALM      29.90S FOG
MORA           PTCLDY    28  28 100 CALM      29.91R
CAMBRIDGE      CLEAR     32  27  80 CALM      29.88S
RUSH CITY      CLEAR     30  28  93 CALM      29.90R FOG
MOOSE LAKE     CLOUDY    32  28  86 CALM      29.87R
HINCKLEY       FAIR      32  32 100 CALM      29.89S
CLOQUET        CLOUDY    34  28  80 CALM      29.88R
MCGREGOR       CLEAR     32  30  93 CALM      29.89R
$$
MNZ071>073-080-081-089-090-097-098-191000-
   Southwest Minnesota

CITY           SKY/WX    TMP DP  RH WIND       PRES   REMARKS
MONTEVIDEO     MOCLDY    36  36 100 S5        29.86R
GRANITE FALLS  MOCLDY    38  35  89 SE3       29.86R
CANBY          PTCLDY    33  33  98 CALM      29.83S
MARSHALL       CLOUDY    38  36  92 S3        29.84R
REDWOOD FALLS  PTCLDY    38  33  82 S12       29.84S
OLIVIA         PTCLDY    36  34  93 SE5       29.85R
PIPESTONE      CLOUDY    45  36  70 S12       29.82R
WINDOM         PTCLDY    37  37 100 S6        29.85S
WORTHINGTON    CLOUDY    40  38  93 S9        29.85S
JACKSON        PTCLDY    39  37  93 S9        29.86S
TRACY          PTCLDY    44  40  86 S15       29.83R
SLAYTON        CLOUDY    35  35  99 S10       29.84S WCI  27
$$
MNZ065>067-074>077-082>085-091>093-191000-
   South Central Minnesota

CITY           SKY/WX    TMP DP  RH WIND       PRES   REMARKS
MANKATO          N/A     39  37  92 S6        29.88S
NEW ULM        CLOUDY    36  34  93 S8        29.86F
ST JAMES       CLOUDY    34  34 100 CALM      29.88S
FAIRMONT       PTCLDY    34  33  96 S7        29.88S WCI  28
GLENCOE          N/A     34  34 100 CALM      29.87S FOG
FARIBAULT      MOCLDY    30  28  93 CALM      29.89S FOG
OWATONNA       CLEAR     32  30  93 CALM      29.89S
WASECA         CLEAR     32  32 100 CALM      29.90R
ALBERT LEA     CLEAR     30  30 100 CALM      29.89R
$$
MNZ078>079-086>088-094>096-191000-
   Southeast Minnesota

CITY           SKY/WX    TMP DP  RH WIND       PRES   REMARKS
ROCHESTER      CLEAR     34  34 100 S6        29.90R FOG     WCI  29
RED WING       CLEAR     30  30 100 CALM      29.90S
STANTON        PTCLDY    32  30  93 CALM      29.88S
DODGE CENTER   MOCLDY    34  34 100 CALM      29.89S FOG
WINONA         CLOUDY    30  28  93 CALM      29.94R
AUSTIN         FOG       28  28 100 CALM      29.89R VSB 1/4
PRESTON        CLEAR     38  37  95 CALM      29.91R
$$
ABBREVIATIONS USED IN REMARKS
   TC - TEMPERATURES IN CELSIUS
  WCI - WIND CHILL INDEX
   HX - HEAT INDEX
  VSB - VISIBILITY
$$




USA.gov is the U.S. government's official web portal to all federal, state and local government web resources and services.